This demonstration page uses our WeatherBlox Daily Observations layout. Learn more.

Left ArrowRight Arrow

Hourly Observations for July 31, 2018

Temp ( °F °C ) Dew Point ( °F °C ) Humidity (%) Winds ( mph kmh ) Pressure ( in mb ) Visibility ( mi km ) Precip ( " mm )
12:51 am 00:51 Clear 79 26.1 60 15.6 52 52 W 6 9 29.89 1012 10 16.0934 N/A
1:51 am 01:51 Clear 79 26.1 60 15.6 52 52 ENE 5 7 29.89 1012 10 16.0934 N/A
2:51 am 02:51 Clear 78 25.6 60 15.6 54 54 SE 10 17 29.9 1012 10 16.0934 N/A
3:51 am 03:51 Clear 77 25 60 15.6 56 56 E 8 13 29.9 1013 10 16.0934 N/A
4:51 am 04:51 Clear 76 24.4 60 15.6 58 58 E 5 7 29.9 1013 10 16.0934 N/A
5:51 am 05:51 Sunny 77 25 59 15 54 54 E 9 15 29.93 1014 10 16.0934 N/A
6:51 am 06:51 Sunny 81 27.2 59 15 47 47 E 12 19 29.93 1014 10 16.0934 N/A
7:51 am 07:51 Sunny 84 28.9 59 15 43 43 ENE 12 19 29.94 1014 10 16.0934 N/A
8:51 am 08:51 Sunny 87 30.6 58 14.4 37 37 SE 8 13 29.94 1014 10 16.0934 N/A
9:51 am 09:51 Sunny 89 31.7 58 14.4 35 35 S 14 22 29.93 1014 10 16.0934 N/A
10:51 am 10:51 Sunny 91 32.8 59 15 34 34 S 10 17 29.93 1014 10 16.0934 N/A
11:51 am 11:51 Sunny 94 34.4 57 13.9 29 29 undefined N/A 29.91 1013 10 16.0934 N/A
12:51 pm 12:51 Sunny 97 36.1 55 12.8 24 24 SE 9 15 29.88 1012 10 16.0934 N/A
1:51 pm 13:51 Sunny 98 36.7 50 10 20 20 S 12 19 29.85 1011 10 16.0934 N/A
2:51 pm 14:51 Sunny 98 36.7 50 10 20 20 S 8 13 29.82 1010 10 16.0934 N/A
3:51 pm 15:51 Sunny 100 37.8 49 9.4 18 18 undefined N/A 29.8 1009 10 16.0934 N/A
4:51 pm 16:51 Sunny 99 37.2 51 10.6 20 20 SSW 5 7 29.78 1008 10 16.0934 N/A
5:51 pm 17:51 Sunny 98 36.7 50 10 20 20 WSW 9 15 29.77 1008 10 16.0934 N/A
6:51 pm 18:51 Sunny 97 36.1 51 10.6 21 21 N N/A 29.76 1008 10 16.0934 N/A
7:51 pm 19:51 Clear 94 34.4 52 11.1 24 24 SW 6 9 29.76 1008 10 16.0934 N/A
8:51 pm 20:51 Clear 92 33.3 54 12.2 28 28 S 6 9 29.79 1009 10 16.0934 N/A
9:51 pm 21:51 Mostly Cloudy 88 31.1 54 12.2 31 31 E 6 9 29.81 1010 10 16.0934 N/A
10:51 pm 22:51 Mostly Cloudy 87 30.6 53 11.7 31 31 ESE 6 9 29.82 1010 10 16.0934 N/A
11:51 pm 23:51 Clear 86 30 55 12.8 35 35 N N/A 29.83 1010 10 16.0934 N/A

Powered by AerisWeather